Home   Weather   Saskatoon   Past weeks

Flag for Canada Past Weather in Saskatoon, Saskatchewan, Canada — Yesterday and Last 2 Weeks

37 °F


Feels Like: 30 °F
Forecast: 33 / 38 °F
Wind: 12 mph from Northeast

Location: Saskatoon Weather Station

Current Time: Oct 28, 2016 at 2:39:11 AM

Latest Report: Oct 28, 2016 at 2:00 AM

Visibility: 1 mi

Pressure: 29.82 "Hg

Humidity: 100%

Dew Point: 37 °F

Location of SaskatoonLocation

Past Weather in Saskatoon — Graph


Saskatoon Temperature Yesterday

Maximum temperature yesterday: 52 °F (at 4:00 PM)
Minimum temperature yesterday: 32 °F (at 12:00 AM)
Average temperature yesterday: 41 °F

High & Low Weather Summary for the Past Weeks

High54 °F (Oct 21, 2:00 PM)100% (Oct 13, 1:00 AM)30.37 "Hg (Oct 13, 1:00 AM)
Low18 °F (Oct 13, 2:00 AM)51% (Oct 21, 2:00 PM)29.24 "Hg (Oct 14, 7:00 PM)
Average36 °F89%29.92 "Hg
* Reported Oct 13 1:00 AM — Oct 28 1:00 AM, Saskatoon, Weather by CustomWeather, © 2016

Note: Actual official high and low records may vary slightly from our data, if they occured in-between our weather recording intervals... More about our weather records


Saskatoon Weather History for the Previous 24 Hours

Scroll right to see more
Time TempWeatherWind HumidityBarometerVisibility
1:00 AM
Fri, Oct 28
37 °FFog.14 mph100%29.79 "Hg1 mi
12:00 AM37 °FFog.15 mph100%29.79 "Hg3 mi
11:04 PM
Thu, Oct 27
39 °FLow clouds.16 mph93%29.77 "Hg8 mi
10:49 PM39 °FLow clouds.14 mph93%29.78 "Hg15 mi
10:00 PM39 °FLow clouds.13 mph93%29.77 "Hg15 mi
9:00 PM39 °FMostly cloudy.13 mph93%29.75 "Hg15 mi
8:54 PM39 °FMostly cloudy.12 mph93%29.76 "Hg15 mi
8:00 PM41 °FOvercast.13 mph87%29.74 "Hg15 mi
7:00 PM43 °FOvercast.13 mph93%29.73 "Hg15 mi
6:00 PM46 °FOvercast.7 mph82%29.70 "Hg15 mi
5:00 PM50 °FOvercast.8 mph71%29.71 "Hg15 mi
4:00 PM52 °FOvercast.8 mph67%29.73 "Hg15 mi
3:00 PM50 °FMostly cloudy.9 mph71%29.75 "Hg15 mi
2:00 PM50 °FOvercast.12 mph71%29.76 "Hg15 mi
1:00 PM48 °FMostly cloudy.12 mph71%29.80 "Hg15 mi
12:00 PM46 °FMostly cloudy.10 mph76%29.84 "Hg15 mi
11:00 AM46 °FMostly cloudy.10 mph76%29.87 "Hg15 mi
10:00 AM45 °FMostly cloudy.12 mph81%29.89 "Hg15 mi
9:00 AM41 °FOvercast.13 mph87%29.92 "Hg15 mi
8:00 AM39 °FOvercast.8 mph87%29.95 "Hg15 mi
7:00 AM39 °FOvercast.8 mph81%29.98 "Hg15 mi
6:00 AM37 °FOvercast.6 mph87%29.99 "Hg15 mi
5:00 AM36 °FOvercast.7 mph93%30.01 "Hg15 mi
4:00 AM34 °FOvercast.3 mph93%30.02 "Hg15 mi
3:00 AM34 °FOvercast.6 mph93%30.04 "Hg15 mi
2:00 AM34 °FOvercast.5 mph93%30.06 "Hg15 mi
Weather by CustomWeather, © 2016

See weather overviewHow to use our weather pages